Clinton-Sherman, OK

8:24 AM CDT on October 17, 2017 (GMT -0500)
Clinton-Sherman

Weather History for KCSM - November, 2012

Change the Weather History Date:

Friday, November 9, 2012

  Actual Average Record
Temperature  
Mean Temperature 70 °F -  
Max Temperature 81 °F 58 °F 82 °F (2002)
Min Temperature 59 °F 41 °F 30 °F (2000)
Cooling Degree Days 5    
Growing Degree Days 20 (Base 50)    
Moisture  
Dew Point 53 °F    
Average Humidity 56    
Maximum Humidity 78    
Minimum Humidity 36    
Precipitation  
Precipitation 0.00 in - - ()
Sea Level Pressure  
Sea Level Pressure 29.78 in    
Wind  
Wind Speed 20 mph (South)    
Max Wind Speed 26 mph    
Max Gust Speed 36 mph    
Visibility 10 miles    
Events      
Averages and records for this station are not official NWS values.
T = Trace of Precipitation, MM = Missing Value Source: NWS Daily Summary

Daily Weather History Graph

Daily Weather History Graph

Search for Another Location

Airport or City:

Trip Planner

Search our weather history database for the weather conditions in past years. The results will help you decide how hot, cold, wet, or windy it might be!

Date:

Astronomy

Nov. 09, 2012 Rise Set
Actual Time 7:06 AM CST 5:34 PM CST
Civil Twilight 6:39 AM CST 6:01 PM CST
Nautical Twilight 6:09 AM CST 6:31 PM CST
Astronomical Twilight 5:39 AM CST 7:01 PM CST
Moon 2:16 AM CST (11/9) 2:39 PM CST (11/9)
Length of Visible Light 11h 21m
Length of Day
10h 27m
Waning Crescent, 23% of the Moon is Illuminated
Nov 9
Waning Crescent
Nov 13
New
Nov 20
First Quarter
Nov 28
Full
Dec 6
Last Quarter

Hourly Weather History & Observations

Time (CST) Temp. Dew Point Humidity Pressure Visibility Wind Dir Wind Speed Gust Speed Precip Events Conditions
12:53 AM 66.0 °F 53.1 °F 63% 29.82 in 10.0 mi South 18.4 mph - N/A   Clear
1:53 AM 64.9 °F 52.0 °F 63% 29.82 in 10.0 mi South 16.1 mph - N/A   Clear
2:53 AM 63.0 °F 52.0 °F 67% 29.82 in 10.0 mi South 15.0 mph - N/A   Clear
3:53 AM 64.0 °F 52.0 °F 65% 29.81 in 10.0 mi South 18.4 mph - N/A   Clear
4:53 AM 62.1 °F 53.1 °F 72% 29.82 in 10.0 mi South 18.4 mph - N/A   Clear
5:53 AM 60.1 °F 53.1 °F 78% 29.83 in 10.0 mi South 17.3 mph - N/A   Clear
6:53 AM 59.0 °F 52.0 °F 78% 29.82 in 10.0 mi South 19.6 mph - N/A   Clear
7:53 AM 59.0 °F 52.0 °F 78% 29.83 in 10.0 mi South 20.7 mph 28.8 mph N/A   Clear
8:53 AM 63.0 °F 54.0 °F 72% 29.83 in 10.0 mi South 20.7 mph 33.4 mph N/A   Clear
9:53 AM 68.0 °F 55.0 °F 63% 29.83 in 10.0 mi South 25.3 mph 32.2 mph N/A   Clear
10:53 AM 72.0 °F 54.0 °F 53% 29.82 in 10.0 mi South 23.0 mph 31.1 mph N/A   Clear
11:53 AM 75.0 °F 53.1 °F 46% 29.80 in 10.0 mi South 23.0 mph 29.9 mph N/A   Clear
12:53 PM 77.0 °F 53.1 °F 43% 29.76 in 10.0 mi South 26.5 mph 34.5 mph N/A   Clear
1:53 PM 79.0 °F 52.0 °F 39% 29.74 in 10.0 mi South 24.2 mph 32.2 mph N/A   Clear
2:53 PM 80.1 °F 52.0 °F 38% 29.73 in 10.0 mi South 23.0 mph 35.7 mph N/A   Clear
3:53 PM 81.0 °F 52.0 °F 36% 29.71 in 10.0 mi South 24.2 mph 32.2 mph N/A   Clear
4:53 PM 80.1 °F 51.1 °F 36% 29.70 in 10.0 mi South 23.0 mph 29.9 mph N/A   Clear
5:53 PM 75.0 °F 50.0 °F 41% 29.73 in 10.0 mi South 12.7 mph - N/A   Clear
6:53 PM 72.0 °F 50.0 °F 46% 29.75 in 10.0 mi South 16.1 mph - N/A   Clear
7:53 PM 72.0 °F 53.1 °F 51% 29.76 in 10.0 mi South 18.4 mph 26.5 mph N/A   Clear
8:53 PM 72.0 °F 54.0 °F 53% 29.77 in 10.0 mi South 20.7 mph - N/A   Clear
9:53 PM 71.1 °F 54.0 °F 55% 29.77 in 10.0 mi South 20.7 mph 32.2 mph N/A   Clear
10:53 PM 70.0 °F 54.0 °F 57% 29.77 in 10.0 mi South 23.0 mph 33.4 mph N/A   Clear
11:53 PM 69.1 °F 54.0 °F 58% 29.79 in 10.0 mi South 20.7 mph - N/A   Clear